FW6178 Weather Reports


time (UTC)temp
C
wind
direction
speed
KPH
gust
KPH
rain 1hr
cm
rain 24hr
cm
rain mn
cm
humidity
%
barometer
mb
20260506184539 20 275 3.2 6.4 0.00 0.00 0.00 41 1013.2
20260506183037 20 243 3.2 8.0 0.00 0.00 0.00 39 1013.5
20260506181543 18 293 1.6 4.8 0.00 0.00 0.00 42 1013.7
20260506180044 17 259 0.0 4.8 0.00 0.00 0.00 45 1014.0
20260506174546 16 349 0.0 3.2 0.00 0.00 0.00 50 1014.2
20260506173039 16 301 0.0 1.6 0.00 0.00 0.00 45 1014.4
20260506171535 15 0 0.0 6.4 0.00 0.00 0.00 54 1014.6
20260506170036 14 0 0.0 3.2 0.00 0.00 0.00 53 1014.7
20260506164533 13 19 0.0 3.2 0.00 0.00 0.00 50 1014.9
20260506163044 13 0 0.0 3.2 0.00 0.00 0.00 57 1015.2
20260506161544 12 0 0.0 1.6 0.00 0.00 0.00 55 1015.2
20260506160040 12 18 0.0 1.6 0.00 0.00 0.00 55 1015.2
20260506154540 11 0 0.0 1.6 0.00 0.00 0.00 58 1015.5
20260506153042 10 18 0.0 1.6 0.00 0.00 0.00 60 1015.5
20260506151534 10 0 0.0 1.6 0.00 0.00 0.00 60 1015.6
20260506150043 10 0 0.0 1.6 0.00 0.00 0.00 63 1015.6
20260506144558 8 0 0.0 1.6 0.00 0.00 0.00 66 1015.7
20260506143046 8 5 0.0 1.6 0.00 0.00 0.00 70 1015.6
20260506141535 6 0 0.0 0.0 0.00 0.00 0.00 80 1015.7
20260506140053 5 0 0.0 0.0 0.00 0.00 0.00 88 1015.7
20260506134537 3 0 0.0 0.0 0.00 0.00 0.00 90 1015.7
20260506133040 2 0 0.0 0.0 0.00 0.00 0.00 91 1015.8
20260506131543 1 0 0.0 0.0 0.00 0.00 0.00 91 1015.7
20260506130045 1 0 0.0 0.0 0.00 0.00 0.00 91 1015.7
20260506124535 1 0 0.0 0.0 0.00 0.00 0.00 90 1015.6
20260506123039 1 0 0.0 0.0 0.00 0.00 0.00 90 1015.5
20260506121534 1 0 0.0 0.0 0.00 0.00 0.00 90 1015.5
20260506120037 1 0 0.0 0.0 0.00 0.00 0.00 90 1015.5
20260506114535 1 0 0.0 0.0 0.00 0.00 0.00 89 1015.4
20260506113039 1 0 0.0 0.0 0.00 0.00 0.00 90 1015.4
20260506111536 1 0 0.0 0.0 0.00 0.00 0.00 89 1015.4
20260506110040 1 0 0.0 0.0 0.00 0.00 0.00 89 1015.3
20260506104539 2 0 0.0 0.0 0.00 0.00 0.00 89 1015.2
20260506103035 2 0 0.0 0.0 0.00 0.00 0.00 89 1015.1
20260506101536 2 0 0.0 0.0 0.00 0.00 0.00 88 1015.1
20260506100037 2 0 0.0 0.0 0.00 0.00 0.00 88 1015.0
20260506094534 2 0 0.0 0.0 0.00 0.00 0.00 88 1014.9
20260506093042 2 0 0.0 0.0 0.00 0.00 0.00 88 1014.9
20260506091539 3 0 0.0 0.0 0.00 0.00 0.00 87 1015.0
20260506090040 3 0 0.0 0.0 0.00 0.00 0.00 87 1015.0
20260506084538 3 0 0.0 0.0 0.00 0.00 0.00 86 1014.9
20260506083035 3 0 0.0 0.0 0.00 0.00 0.00 86 1015.0
20260506081536 3 0 0.0 0.0 0.00 0.00 0.00 85 1014.9
20260506073037 4 0 0.0 0.0 0.00 0.00 0.00 82 1014.5
20260506071534 5 0 0.0 0.0 0.00 0.00 0.00 83 1014.4
20260506061543 6 0 0.0 1.6 0.00 0.00 0.00 78 1014.2
20260506044546 8 0 0.0 1.6 0.00 0.00 0.00 70 1013.1
20260506043035 9 0 0.0 1.6 0.00 0.00 0.00 67 1013.0
20260506041536 10 0 0.0 1.6 0.00 0.00 0.00 69 1012.8
20260506040042 10 0 0.0 1.6 0.00 0.00 0.00 68 1012.5
20260506034545 11 0 0.0 0.0 0.00 0.00 0.00 72 1012.2
20260506033035 12 0 0.0 0.0 0.00 0.00 0.00 59 1011.9
20260506031544 13 0 0.0 1.6 0.00 0.00 0.00 53 1011.8
20260506030044 15 0 0.0 1.6 0.00 0.00 0.00 49 1011.8
20260506024550 15 0 0.0 0.0 0.00 0.00 0.00 47 1011.7
20260506023042 17 0 0.0 0.0 0.00 0.00 0.00 44 1011.6
20260506021537 18 0 0.0 0.0 0.00 0.00 0.00 43 1011.5
20260506020042 20 0 0.0 0.0 0.00 0.00 0.00 38 1011.5
20260506014543 21 0 0.0 1.6 0.00 0.00 0.00 36 1011.5
20260506013035 21 330 0.0 1.6 0.00 0.00 0.00 31 1011.5
20260506011543 21 0 0.0 4.8 0.00 0.00 0.00 34 1011.4
20260506010053 21 0 0.0 3.2 0.00 0.00 0.00 31 1011.5
20260506004536 20 45 1.6 6.4 0.00 0.00 0.00 30 1011.5
20260506003036 20 53 1.6 6.4 0.00 0.00 0.00 30 1011.8
20260506001535 21 44 1.6 6.4 0.00 0.00 0.00 31 1011.9
20260506000034 21 46 3.2 6.4 0.00 0.00 0.00 28 1012.3
20260505234540 21 51 4.8 9.7 0.00 0.00 0.00 30 1012.3
20260505233046 21 30 4.8 9.7 0.00 0.00 0.00 31 1012.5
20260505231537 21 39 0.0 6.4 0.00 0.00 0.00 29 1012.8
20260505230040 21 18 1.6 8.0 0.00 0.00 0.00 31 1012.8
20260505224541 21 81 3.2 9.7 0.00 0.00 0.00 30 1012.9
20260505223045 21 328 1.6 9.7 0.00 0.00 0.00 32 1013.1
20260505221543 20 84 4.8 11.3 0.00 0.00 0.00 30 1013.3
20260505220040 21 40 3.2 12.9 0.00 0.00 0.00 31 1013.4
20260505214536 20 53 6.4 14.5 0.00 0.00 0.00 31 1013.5
20260505213035 20 18 1.6 11.3 0.00 0.00 0.00 32 1013.9
20260505211535 20 47 0.0 9.7 0.00 0.00 0.00 37 1014.0
20260505210034 20 43 3.2 12.9 0.00 0.00 0.00 33 1014.2
20260505204541 20 64 4.8 14.5 0.00 0.00 0.00 33 1014.4
20260505203038 20 49 4.8 14.5 0.00 0.00 0.00 31 1014.7
20260505201548 19 75 8.0 16.1 0.00 0.00 0.00 33 1014.7
20260505200034 19 67 4.8 14.5 0.00 0.00 0.00 35 1014.8
20260505194542 19 95 6.4 12.9 0.00 0.00 0.00 35 1015.0
20260505193042 19 39 3.2 8.0 0.00 0.00 0.00 34 1014.8
20260505191536 19 339 1.6 8.0 0.00 0.00 0.00 34 1014.9
20260505190038 18 345 1.6 8.0 0.00 0.00 0.00 36 1014.9